Miscellaneous Local Product
Issued by NWS Hastings, NE

Home | Current Version | Previous Version | Text Only | Print | Product List | Glossary On
Versions: 1 2 3 4 5 6 7 8 9 10 11 12 13 14 15 16 17 18 19 20 21 22 23 24 25 26 27 28 29 30 31 32 33 34 35 36 37 38 39 40 41 42 43 44 45 46 47 48 49 50
531
AXUS43 KGID 050502
MISGRI

GID CWA HOURLY WEATHER ROUNDUP
NATIONAL WEATHER SERVICE HASTINGS NE
1200 AM CDT THU MAY 05 2016

NOTE: "FAIR" INDICATES FEW OR NO CLOUDS BELOW 12,000 FEET WITH NO
SIGNIFICANT WEATHER AND/OR OBSTRUCTIONS TO VISIBILITY.

...SOUTH CENTRAL NEBRASKA...

CITY           SKY/WX    TMP DP  RH WIND       PRES   REMARKS
GRAND ISLAND   CLEAR     50  38  63 NW3       30.08R
HASTINGS       CLEAR     50  40  68 W3        30.07S
KEARNEY        CLEAR     54  39  58 CALM      30.09R
ORD            CLEAR     43  39  86 CALM      30.07S
YORK           CLEAR     46  37  71 NW6       30.06F
AURORA         CLEAR     50  36  58 N7        30.07S
LEXINGTON      CLEAR     49  42  77 CALM      30.08F
HOLDREGE       CLEAR     52  41  65 CALM      30.08S
HEBRON         CLEAR     49  38  66 CALM      30.05S

...NEBRASKA PANHANDLE...

CITY           SKY/WX    TMP DP  RH WIND       PRES   REMARKS
CHADRON        CLEAR     55  40  56 CALM      30.03S
ALLIANCE       CLEAR     48  42  80 S7        30.09R
SCOTTSBLUFF    CLEAR     54  42  64 E6        30.09S
SIDNEY         CLEAR     48  41  76 S8        30.13F

...WESTERN AND NORTH CENTRAL NEBRASKA...

CITY           SKY/WX    TMP DP  RH WIND       PRES   REMARKS
VALENTINE      CLEAR     54  37  52 SE3       30.07S
AINSWORTH      CLEAR     49  39  68 SE6       30.08S
ONEILL         CLEAR     52  41  64 W3        30.07S
BROKEN BOW     CLEAR     44  38  79 CALM      30.08S
IMPERIAL       CLEAR     53  42  66 SE8       30.10S
NORTH PLATTE   CLEAR     48  40  73 E5        30.08S
MCCOOK         CLEAR     57  41  55 CALM      30.09S

...EASTERN NEBRASKA...

CITY           SKY/WX    TMP DP  RH WIND       PRES   REMARKS
NORFOLK        CLEAR     46  37  71 W7        30.05S
SO SIOUX CITY  CLEAR     52  38  58 CALM      30.02S
TEKAMAH        CLEAR     54  40  59 NW8       30.01S
COLUMBUS       CLEAR     45  34  65 CALM      30.06S
ALBION         CLEAR     44  37  76 NW3       30.07S
OMAHA EPPLEY   CLEAR     52  43  71 CALM      30.01S
OFFUTT AFB     CLEAR     50  43  77 W7        30.01S
MILLARD        CLEAR     51  43  73 CALM      30.02S
LINCOLN        CLEAR     48  40  73 N5        30.05S
NEBRASKA CITY  CLEAR     55  37  50 NW6       30.02S
BEATRICE       CLEAR     45  40  81 NW3       30.05R
FALLS CITY     CLEAR     53  39  59 CALM      30.02R

...NORTHERN KANSAS...

CITY           SKY/WX    TMP DP  RH WIND       PRES   REMARKS
GOODLAND       CLEAR     53  42  66 S10       30.12S
HILL CITY      CLEAR     49  44  83 CALM      30.09S
NORTON         CLEAR     50  41  71 CALM      30.08S
PHILLIPSBURG   CLEAR     52  45  76 CALM      30.08S
SMITH CENTER   CLEAR     50  37  62 CALM      30.08S
BELOIT         CLEAR     45  43  93 CALM      30.05S
HAYS           CLEAR     48  39  71 CALM      30.08S
RUSSELL        CLEAR     53  41  63 S3        30.06F
CONCORDIA      CLEAR     51  35  54 NW3       30.05S
SALINA         CLEAR     51  42  71 CALM      30.06R
TOPEKA         CLEAR     50  43  77 CALM      30.03R



USA.gov is the U.S. government's official web portal to all federal, state and local government web resources and services.